Weather History for KISQ - January, 2014

Change the Weather History Date:

Saturday, January 18, 2014

  Actual Average Record
Temperature  
Mean Temperature 16 °F -  
Max Temperature 25 °F 22 °F 42 °F (1951)
Min Temperature 8 °F 6 °F -19 °F (1984)
Degree Days  
Heating Degree Days 48    
Moisture  
Dew Point 11 °F    
Average Humidity 80    
Maximum Humidity 89    
Minimum Humidity 55    
Precipitation  
Precipitation 0.00 in - - ()
Sea Level Pressure  
Sea Level Pressure 29.79 in    
Wind  
Wind Speed 6 mph (West)    
Max Wind Speed 9 mph    
Max Gust Speed -    
Visibility 10 miles    
Events Snow    
Averages and records for this station are not official NWS values.
T = Trace of Precipitation, MM = Missing Value Source: NWS Daily Summary

Daily Weather History Graph

Daily Weather History Graph

Search for Another Location

Airport or City:

Trip Planner

Search our weather history database for the weather conditions in past years. The results will help you decide how hot, cold, wet, or windy it might be!

Date:

Astronomy

Jan. 18, 2014 Rise Set
Actual Time 8:20 AM EST 5:30 PM EST
Civil Twilight 7:47 AM EST 6:03 PM EST
Nautical Twilight 7:10 AM EST 6:40 PM EST
Astronomical Twilight 6:34 AM EST 7:15 PM EST
Moon 8:22 PM EST (1/18) 9:10 AM EST (1/18)
Length of Visible Light 10h 16m
Length of Day
9h 09m
Waning Gibbous, 94% of the Moon is Illuminated
Jan 18
Waning Gibbous
Jan 24
Last Quarter
Jan 30
New
Feb 6
First Quarter
Feb 14
Full

Hourly Weather History & Observations

Time (EST) Temp. Windchill Dew Point Humidity Pressure Visibility Wind Dir Wind Speed Gust Speed Precip Events Conditions
12:14 AM 13.1 °F 1.8 °F 10.2 °F 88% 29.81 in 7.0 mi WNW 8.1 mph - N/A Snow Light Snow
12:35 AM 12.4 °F 0.9 °F 9.5 °F 88% 29.80 in 7.0 mi West 8.1 mph - N/A Snow Light Snow
12:55 AM 10.9 °F -0.8 °F 8.2 °F 89% 29.80 in 10.0 mi West 8.1 mph - N/A Snow Light Snow
1:14 AM 11.7 °F 0.0 °F 8.8 °F 88% 29.80 in 10.0 mi WNW 8.1 mph - N/A Snow Light Snow
1:35 AM 12.2 °F -0.2 °F 9.3 °F 88% 29.80 in 10.0 mi WNW 9.2 mph - N/A Snow Light Snow
1:55 AM 12.6 °F 0.2 °F 9.5 °F 88% 29.81 in 10.0 mi WNW 9.2 mph - N/A Snow Light Snow
2:14 AM 12.9 °F 1.6 °F 9.7 °F 87% 29.81 in 10.0 mi WNW 8.1 mph - N/A Snow Light Snow
2:35 AM 13.1 °F 1.8 °F 9.7 °F 86% 29.81 in 10.0 mi WNW 8.1 mph - N/A Snow Light Snow
2:54 AM 11.3 °F 0.7 °F 7.9 °F 86% 29.81 in 10.0 mi WNW 6.9 mph - N/A Snow Light Snow
3:14 AM 10.2 °F -0.6 °F 6.8 °F 86% 29.80 in 10.0 mi WNW 6.9 mph - N/A Snow Light Snow
3:35 AM 8.8 °F -2.4 °F 6.1 °F 89% 29.81 in 10.0 mi WNW 6.9 mph - N/A Snow Light Snow
3:54 AM 10.0 °F -1.9 °F 7.3 °F 89% 29.81 in 10.0 mi WNW 8.1 mph - N/A Snow Light Snow
4:15 AM 10.0 °F -1.9 °F 7.2 °F 88% 29.81 in 10.0 mi WNW 8.1 mph - N/A   Scattered Clouds
4:35 AM 10.4 °F -1.5 °F 7.3 °F 87% 29.81 in 10.0 mi WNW 8.1 mph - N/A   Scattered Clouds
4:54 AM 11.3 °F -0.4 °F 7.9 °F 86% 29.80 in 10.0 mi NW 8.1 mph - N/A Snow Light Snow
5:15 AM 12.6 °F 1.1 °F 9.0 °F 85% 29.80 in 10.0 mi WNW 8.1 mph - N/A Snow Light Snow
5:34 AM 13.1 °F 2.8 °F 9.5 °F 86% 29.81 in 10.0 mi WNW 6.9 mph - N/A Snow Light Snow
5:54 AM 13.6 °F 3.5 °F 10.0 °F 86% 29.80 in 10.0 mi WNW 6.9 mph - N/A Snow Light Snow
6:15 AM 13.8 °F 2.7 °F 10.2 °F 86% 29.80 in 10.0 mi NW 8.1 mph - N/A Snow Light Snow
6:34 AM 13.8 °F 4.9 °F 10.2 °F 86% 29.80 in 10.0 mi NW 5.8 mph - N/A Snow Light Snow
6:54 AM 13.8 °F 6.2 °F 10.0 °F 85% 29.80 in 10.0 mi NW 4.6 mph - N/A   Overcast
7:15 AM 13.6 °F 6.0 °F 9.9 °F 85% 29.80 in 10.0 mi NW 4.6 mph - N/A   Overcast
7:34 AM 13.5 °F 5.8 °F 9.7 °F 85% 29.80 in 10.0 mi NW 4.6 mph - N/A   Overcast
7:54 AM 13.5 °F 7.5 °F 9.7 °F 85% 29.81 in 10.0 mi WNW 3.5 mph - N/A   Overcast
8:15 AM 13.1 °F 4.0 °F 9.5 °F 86% 29.81 in 10.0 mi NW 5.8 mph - N/A Snow Light Snow
8:34 AM 13.1 °F 7.1 °F 9.5 °F 86% 29.81 in 10.0 mi NNW 3.5 mph - N/A Snow Light Snow
8:55 AM 13.1 °F - 9.5 °F 86% 29.82 in 4.0 mi Calm Calm - N/A Snow Light Snow
9:14 AM 13.6 °F 7.7 °F 10.2 °F 86% 29.82 in 10.0 mi North 3.5 mph - N/A   Overcast
9:34 AM 14.2 °F - 10.8 °F 86% 29.83 in 10.0 mi Calm Calm - N/A   Overcast
9:55 AM 14.5 °F 8.8 °F 11.1 °F 86% 29.83 in 10.0 mi NNE 3.5 mph - N/A   Overcast
10:14 AM 15.1 °F 9.4 °F 11.5 °F 86% 29.83 in 10.0 mi North 3.5 mph - N/A   Overcast
10:34 AM 16.0 °F 8.8 °F 12.2 °F 85% 29.84 in 7.0 mi North 4.6 mph - N/A Snow Light Snow
10:55 AM 17.2 °F - 13.1 °F 84% 29.84 in 10.0 mi Calm Calm - N/A Snow Light Snow
11:14 AM 17.8 °F - 13.5 °F 83% 29.84 in 10.0 mi Calm Calm - N/A   Overcast
11:34 AM 18.5 °F - 13.8 °F 82% 29.84 in 10.0 mi Calm Calm - N/A   Overcast
11:55 AM 19.4 °F 12.8 °F 14.2 °F 80% 29.83 in 10.0 mi North 4.6 mph - N/A   Overcast
12:14 PM 20.1 °F 15.2 °F 13.8 °F 77% 29.82 in 10.0 mi North 3.5 mph - N/A   Overcast
12:35 PM 23.0 °F - 11.8 °F 62% 29.82 in 10.0 mi Calm Calm - N/A   Overcast
12:55 PM 21.7 °F 15.5 °F 9.5 °F 59% 29.81 in 10.0 mi NW 4.6 mph - N/A   Mostly Cloudy
1:14 PM 23.5 °F 19.1 °F 10.4 °F 57% 29.81 in 10.0 mi WNW 3.5 mph - N/A   Overcast
1:35 PM 25.0 °F 20.7 °F 10.9 °F 55% 29.80 in 10.0 mi West 3.5 mph - N/A   Overcast
1:54 PM 23.7 °F 17.8 °F 11.1 °F 59% 29.80 in 10.0 mi WSW 4.6 mph - N/A   Overcast
2:14 PM 23.0 °F 15.8 °F 11.3 °F 61% 29.80 in 10.0 mi West 5.8 mph - N/A   Overcast
2:35 PM 23.2 °F 18.7 °F 12.0 °F 62% 29.80 in 10.0 mi SSW 3.5 mph - N/A   Overcast
2:54 PM 21.9 °F 13.4 °F 14.4 °F 73% 29.79 in 10.0 mi SSW 6.9 mph - N/A   Overcast
3:15 PM 21.9 °F 14.5 °F 14.0 °F 72% 29.80 in 10.0 mi SSW 5.8 mph - N/A   Scattered Clouds
3:35 PM 22.8 °F 16.7 °F 14.5 °F 71% 29.80 in 10.0 mi SW 4.6 mph - N/A   Clear
3:54 PM 22.3 °F 17.6 °F 14.5 °F 72% 29.80 in 10.0 mi SSW 3.5 mph - N/A   Clear
4:15 PM 21.6 °F 14.0 °F 12.2 °F 67% 29.80 in 10.0 mi SSW 5.8 mph - N/A   Scattered Clouds
4:34 PM 21.4 °F 15.1 °F 12.7 °F 69% 29.80 in 10.0 mi SSW 4.6 mph - N/A   Mostly Cloudy
4:54 PM 21.9 °F 17.2 °F 12.6 °F 67% 29.79 in 10.0 mi SSW 3.5 mph - N/A   Overcast
5:15 PM 21.2 °F 16.4 °F 12.0 °F 68% 29.79 in 10.0 mi SW 3.5 mph - N/A   Overcast
5:34 PM 19.0 °F - 10.9 °F 71% 29.79 in 10.0 mi Calm Calm - N/A   Overcast
5:54 PM 18.7 °F 11.9 °F 12.0 °F 75% 29.78 in 10.0 mi SSW 4.6 mph - N/A   Scattered Clouds
6:15 PM 18.9 °F 12.1 °F 12.7 °F 77% 29.78 in 10.0 mi SSW 4.6 mph - N/A   Scattered Clouds
6:34 PM 18.9 °F 13.7 °F 12.6 °F 76% 29.78 in 10.0 mi WSW 3.5 mph - N/A   Clear
6:54 PM 17.6 °F 10.7 °F 10.9 °F 75% 29.78 in 10.0 mi West 4.6 mph - N/A   Clear
7:15 PM 16.2 °F 9.0 °F 10.0 °F 77% 29.77 in 10.0 mi WSW 4.6 mph - N/A   Clear
7:34 PM 15.1 °F 9.4 °F 10.0 °F 80% 29.77 in 10.0 mi WSW 3.5 mph - N/A   Clear
7:55 PM 14.2 °F 6.7 °F 10.4 °F 85% 29.76 in 10.0 mi WSW 4.6 mph - N/A   Clear
8:14 PM 14.0 °F 8.2 °F 10.4 °F 86% 29.75 in 10.0 mi SW 3.5 mph - N/A   Clear
8:34 PM 14.5 °F 5.7 °F 10.4 °F 84% 29.75 in 10.0 mi WSW 5.8 mph - N/A   Clear
8:55 PM 14.4 °F 5.5 °F 9.5 °F 81% 29.73 in 10.0 mi WSW 5.8 mph - N/A   Clear
9:14 PM 14.7 °F 5.9 °F 9.5 °F 80% 29.72 in 10.0 mi WSW 5.8 mph - N/A   Clear
9:34 PM 14.7 °F 5.9 °F 9.5 °F 80% 29.72 in 10.0 mi SW 5.8 mph - N/A   Clear
9:55 PM 15.3 °F 6.6 °F 10.0 °F 80% 29.70 in 10.0 mi SW 5.8 mph - N/A   Clear
10:14 PM 14.9 °F 6.1 °F 10.0 °F 81% 29.69 in 10.0 mi SW 5.8 mph - N/A   Clear
10:34 PM 15.6 °F 5.9 °F 11.1 °F 82% 29.68 in 10.0 mi SW 6.9 mph - N/A   Clear
10:55 PM 15.8 °F 7.2 °F 12.0 °F 85% 29.67 in 10.0 mi SW 5.8 mph - N/A   Clear
11:14 PM 16.2 °F 5.5 °F 12.0 °F 84% 29.65 in 10.0 mi SW 8.1 mph - N/A   Clear
11:35 PM 16.7 °F 7.2 °F 12.2 °F 82% 29.63 in 10.0 mi SW 6.9 mph - N/A   Mostly Cloudy
11:54 PM 16.7 °F 6.2 °F 12.2 °F 82% 29.61 in 10.0 mi SW 8.1 mph - N/A   Scattered Clouds